[[{"header":{"parameterUnit":"m.s-1","parameterCategory":1,"la1":30.2992,"la2":30.254,"lo1":-89.0895,"lo2":-89.0443,"dy":0.0025,"dx":0.0025,"nx":19,"ny":19,"refTime":"2026-04-20T09:00:00:Z","depth":0,"parameterNumber":2,"parameterNumberName":"U-component_of_WINDS"},"data":[0,0,0,-1.8896,-1.8898,-1.9013,-1.9013,-1.9167,-1.9168,0,0,0,0,0,0,0,0,0,0,0,-1.8867,-1.8868,-1.8895,-1.8898,-1.9013,-1.9013,-1.9166,-1.9168,0,0,0,0,0,0,0,0,0,0,0,-1.8866,-1.8868,-1.8869,-1.8899,-1.9013,-1.9013,-1.9166,-1.9077,0,0,0,0,0,0,0,0,0,0,-1.8965,-1.8944,-1.8868,-1.8869,-1.89,-1.9012,-1.9013,-1.9073,-1.9083,-1.9118,0,-1.9151,0,-1.9162,-1.9179,-1.9179,0,0,0,-1.8895,-1.8936,-1.8961,-1.887,-1.8901,-1.9012,-1.896,-1.9078,-1.9089,-1.9131,-1.9154,-1.9159,-1.9165,-1.918,-1.9181,-1.9395,-1.9396,0,0,-1.8888,-1.8891,-1.8953,-1.8969,-1.8952,-1.8956,-1.8964,-1.9085,-1.9109,-1.9154,-1.9162,-1.9167,-1.9181,-1.9182,-1.9394,-1.9395,0,0,0,-1.8873,-1.8887,-1.8909,-1.8963,-1.8983,-1.896,-1.8968,-1.9104,-1.9111,-1.9164,-1.9169,-1.9182,-1.9184,-1.9393,-1.9394,-1.9453,0,0,0,-1.8869,-1.8877,-1.8907,-1.8909,-1.8981,-1.9045,-1.8985,-1.9103,-1.9116,-1.9168,-1.9182,-1.9185,-1.9391,-1.9393,-1.9449,-1.9482,0,0,0,-1.8858,-1.8876,-1.8894,-1.8909,-1.8958,-1.9043,-1.9057,-1.9106,-1.912,-1.9179,-1.9186,-1.939,-1.9393,-1.9445,-1.9475,-1.9537,0,0,0,-1.8847,-1.8948,-1.8895,-1.9009,-1.8957,-1.9078,-1.9056,-1.9147,-1.9205,-1.9183,-1.9391,-1.9394,-1.9444,-1.9472,-1.9533,-1.959,-1.9614,0,0,-1.8976,-1.8964,-1.903,-1.8986,-1.9117,-1.9061,-1.92,-1.9253,-1.9257,-1.9348,-1.9353,-1.9451,-1.9475,-1.9536,-1.9747,-1.9766,0,0,0,-1.9071,-1.9119,-1.9153,-1.9208,-1.9248,-1.9285,-1.9315,-1.9333,-1.941,-1.9304,-1.949,-1.9504,-1.954,-1.9567,-1.9583,-1.9613,-1.9407,-1.9406,-1.9406,-1.9259,-1.9256,-1.9364,-1.9374,-1.9427,-1.9454,-1.9496,-1.9525,-1.951,-1.9553,-1.9581,-1.9708,-1.974,-1.9752,-1.9784,-1.961,-1.961,-1.9611,-1.9611,-1.9446,-1.9513,-1.9484,-1.9579,-1.9574,-1.9654,-1.9682,-1.9667,-1.974,-1.9689,-1.972,-1.9664,-1.9773,-1.98,-1.9615,-1.9614,-1.9614,-1.9613,-1.9613,-1.9569,-1.96,-1.9619,-1.9693,-1.9751,-1.9757,-1.9826,-1.982,-1.9815,-1.9846,-1.9873,-1.9872,-1.9869,-1.9859,-1.9859,-1.986,-1.986,-1.986,-1.9861,-1.969,-1.9708,-1.9768,-1.9815,-1.9846,-1.9887,-1.9911,-1.9942,-1.9974,-1.9964,-1.9964,-1.9942,-1.9784,-1.9744,-1.9868,-1.9866,-1.9865,-1.9865,-1.9864,-1.9883,-1.9836,-1.9928,-1.9959,-2.0011,-2.0067,-2.0056,-2.0118,-2.0142,-2.0176,-2.0146,-2.003,-2.0018,-2.0005,-1.9972,-2.0147,-2.0147,-2.0147,-2.0147,-1.9986,-1.9978,-2.0068,-2.0117,-2.0164,-2.0162,-2.0263,-2.028,-2.0292,-2.0306,-2.0279,-2.0235,-2.0222,-2.0217,-2.02,-2.0169,-2.039,-2.039,-2.039,-2.0104,-2.0098,-2.0187,-2.0196,-2.0234,-2.0267,-2.0361,-2.0417,-2.0421,-2.04,-2.0317,-2.0306,-2.0234,-2.0211,-2.0191,-2.0164,-2.0108,0,0]},{"header":{"parameterUnit":"m.s-1","parameterCategory":1,"la1":30.2992,"la2":30.254,"lo1":-89.0895,"lo2":-89.0443,"dy":0.0025,"dx":0.0025,"nx":19,"ny":19,"refTime":"2026-04-20T09:00:00:Z","depth":0,"parameterNumber":3,"parameterNumberName":"V-component_of_WINDS"},"data":[0,0,0,0.3341,0.3339,0.3241,0.324,0.313,0.3129,0,0,0,0,0,0,0,0,0,0,0,0.3379,0.3379,0.3341,0.3339,0.3241,0.324,0.313,0.3129,0,0,0,0,0,0,0,0,0,0,0,0.3379,0.3379,0.3378,0.3338,0.3241,0.324,0.313,0.3199,0,0,0,0,0,0,0,0,0,0,0.3291,0.3336,0.3379,0.3378,0.3338,0.3241,0.324,0.3202,0.3194,0.3181,0,0.3172,0,0.3149,0.3123,0.3122,0,0,0,0.3331,0.3342,0.3308,0.3378,0.3337,0.3241,0.3283,0.3198,0.3189,0.3172,0.317,0.3166,0.3147,0.3122,0.3122,0.3072,0.3072,0,0,0.3337,0.3366,0.3313,0.3303,0.332,0.3286,0.328,0.3192,0.3193,0.317,0.3163,0.3146,0.3122,0.3121,0.3072,0.3072,0,0,0,0.3357,0.3371,0.3337,0.3308,0.3289,0.3283,0.3276,0.3196,0.3183,0.3162,0.3144,0.3121,0.312,0.3071,0.3072,0.3107,0,0,0,0.336,0.3382,0.334,0.3357,0.3291,0.3242,0.3283,0.3189,0.3179,0.3145,0.3121,0.3119,0.3071,0.3072,0.3106,0.3118,0,0,0,0.3382,0.3385,0.3374,0.3359,0.3318,0.3242,0.3224,0.3186,0.3168,0.3122,0.3119,0.3071,0.3072,0.3104,0.3116,0.3114,0,0,0,0.3414,0.3405,0.3375,0.3359,0.3319,0.3266,0.3224,0.3182,0.3147,0.312,0.3071,0.3072,0.3104,0.3115,0.3113,0.3118,0.3122,0,0,0.342,0.3407,0.3395,0.3365,0.3325,0.3278,0.3242,0.3181,0.3149,0.3099,0.3097,0.3106,0.3116,0.3114,0.314,0.3144,0,0,0,0.3407,0.3399,0.3382,0.335,0.3305,0.3267,0.3209,0.3186,0.3143,0.313,0.3104,0.3109,0.3107,0.3107,0.3111,0.3107,0.3073,0.3073,0.3073,0.3456,0.3417,0.3395,0.3345,0.3316,0.3257,0.3229,0.3189,0.3157,0.3152,0.3137,0.3157,0.316,0.3162,0.3158,0.3136,0.3136,0.3137,0.3137,0.346,0.3442,0.3403,0.3367,0.3327,0.3296,0.324,0.3219,0.3184,0.3165,0.3161,0.3143,0.3168,0.3162,0.3139,0.3138,0.3138,0.3138,0.3138,0.3487,0.3472,0.3447,0.3399,0.3367,0.3317,0.3287,0.325,0.3215,0.3211,0.3192,0.3191,0.3185,0.3205,0.3205,0.3205,0.3205,0.3205,0.3205,0.3525,0.3495,0.3475,0.3428,0.3404,0.3369,0.3312,0.3287,0.325,0.3226,0.3226,0.3195,0.3178,0.3174,0.3206,0.3206,0.3206,0.3206,0.3206,0.3542,0.3533,0.3501,0.3478,0.3421,0.3392,0.3347,0.3301,0.3276,0.3262,0.3233,0.3226,0.321,0.3207,0.3204,0.3241,0.3241,0.3241,0.3241,0.3565,0.3554,0.3515,0.348,0.3442,0.3399,0.3364,0.3321,0.3274,0.3256,0.3246,0.3239,0.3237,0.3222,0.3218,0.3214,0.3254,0.3254,0.3254,0.3574,0.3558,0.3536,0.3491,0.3445,0.3406,0.3373,0.3334,0.3279,0.3254,0.3241,0.3241,0.3229,0.3227,0.32,0.3195,0.3187,0,0]}]]